Tracking 27420 objects as of 28-May-2023
HD Live streaming from Space Station
objects crossing your sky now

STARLINK-5914

Track STARLINK-5914 now!
10-day predictions
STARLINK-5914 is classified as:


NORAD ID: 55941
Int'l Code: 2023-037AD
Perigee: 363.8 km
Apogee: 368.6 km
Inclination: 70.0 °
Period: 91.7 minutes
Semi major axis: 6737 km
RCS: Unknown
Launch date: March 17, 2023
Source: United States (US)
Launch site: AIR FORCE WESTERN TEST RANGE (AFWTR)
Your satellite tracking list
Your tracking list is empty




NASA's NSSDC Master Catalog

Two Line Element Set (TLE):
1 55941U 23037AD  23147.95914217 -.00005571  00000-0 -44540-4 0  9995
2 55941  69.9964 340.9158 0003580 278.3540  81.7250 15.69948853 11366
Source of the keplerian elements: AFSPC